Zurück zum Katalog

STARLINK-36050

AktivKommunikationVLEO
NORAD 66602·PAYLOAD·🇺🇸 United States

Gestartet Nov 22, 2025 von Cape Canaveral Space Force Station

Loading…

Nächste Überflüge (nächste 24 Stunden)

TLE

AktuellSource: CelesTrak SupGP

Epoche: Sep 15, 2026, 03:46 UTC

1 66602C 25270Q   26258.15743056 -.00030921  00000+0 -11187-2 0  2584
2 66602  43.0037  66.4496 0001484 270.2504 291.7710 15.27631199    13

Verfolge STARLINK-36050 in Echtzeit mit AllMySat

Download on the App Store